Change the Weather History Date:

Sunday, January 18, 2015

  Actual Average Record
Temperature  
Mean Temperature 68 °F 66 °F  
Max Temperature 77 °F 75 °F 87 °F (1960)
Min Temperature 58 °F 57 °F 32 °F (1965)
Degree Days  
Heating Degree Days 0 3  
Month to date heating degree days 1 54  
Since 1 July heating degree days 43 125  
Cooling Degree Days 3 3  
Month to date cooling degree days 136 61  
Year to date cooling degree days 136 61  
Growing Degree Days 18 (Base 50)    
Moisture  
Dew Point 55 °F    
Average Humidity 63    
Maximum Humidity 90    
Minimum Humidity 36    
Precipitation  
Precipitation 0.00 in 0.09 in 1.65 in (1941)
Month to date precipitation 0.98 1.90  
Year to date precipitation 0.98 1.90  
Snow  
Snow 0.00 in - - ()
Month to date snowfall 0.0  
Since 1 July snowfall 0.0  
Snow Depth 0.00 in    
Sea Level Pressure  
Sea Level Pressure 30.10 in    
Wind  
Wind Speed 7 mph (WNW)    
Max Wind Speed 21 mph    
Max Gust Speed 27 mph    
Visibility 10 miles    
Events      
T = Trace of Precipitation, MM = Missing Value Source: NWS Daily Summary

Daily Weather History Graph

Daily Weather History Graph

Search for Another Location

Airport or City:

Trip Planner

Search our weather history database for the weather conditions in past years. The results will help you decide how hot, cold, wet, or windy it might be!

Date:

Astronomy

Jan. 18, 2015 Rise Set
Actual Time 7:10 AM EST 5:51 PM EST
Civil Twilight 6:45 AM EST 6:16 PM EST
Nautical Twilight 6:16 AM EST 6:44 PM EST
Astronomical Twilight 5:49 AM EST 7:12 PM EST
Moon 5:05 AM EST (1/18) 4:12 PM EST (1/18)
Length of Visible Light 11h 31m
Length of Day
10h 41m
Waning Crescent, 5% of the Moon is Illuminated
Jan 18
Waning Crescent
Jan 20
New
Jan 26
First Quarter
Feb 3
Full
Feb 11
Last Quarter

Hourly Weather History & Observations

Time (EST) Temp. Dew Point Humidity Pressure Visibility Wind Dir Wind Speed Gust Speed Precip Events Conditions
12:53 AM 64.0 °F 57.0 °F 78% 30.09 in 10.0 mi West 4.6 mph - N/A   Partly Cloudy
1:53 AM 64.9 °F 57.9 °F 78% 30.09 in 10.0 mi WSW 6.9 mph - N/A   Partly Cloudy
2:53 AM 63.0 °F 57.9 °F 84% 30.08 in 10.0 mi WSW 4.6 mph - N/A   Partly Cloudy
3:53 AM 63.0 °F 57.0 °F 81% 30.08 in 10.0 mi Calm Calm - N/A   Clear
4:53 AM 61.0 °F 57.0 °F 87% 30.07 in 10.0 mi Calm Calm - N/A   Clear
5:53 AM 61.0 °F 57.0 °F 87% 30.08 in 10.0 mi Calm Calm - N/A   Partly Cloudy
6:53 AM 60.1 °F 57.0 °F 90% 30.10 in 10.0 mi West 3.5 mph - N/A   Partly Cloudy
7:53 AM 61.0 °F 57.9 °F 90% 30.11 in 10.0 mi WNW 4.6 mph - N/A   Scattered Clouds
8:53 AM 68.0 °F 60.1 °F 76% 30.13 in 10.0 mi WNW 10.4 mph - N/A   Scattered Clouds
9:53 AM 71.1 °F 60.1 °F 68% 30.14 in 10.0 mi West 13.8 mph - N/A   Scattered Clouds
10:53 AM 73.0 °F 61.0 °F 66% 30.13 in 10.0 mi WNW 12.7 mph - N/A   Mostly Cloudy
11:53 AM 73.9 °F 60.1 °F 62% 30.11 in 10.0 mi West 16.1 mph - N/A   Scattered Clouds
12:53 PM 73.9 °F 57.9 °F 57% 30.08 in 10.0 mi West 15.0 mph - N/A   Mostly Cloudy
1:53 PM 75.9 °F 51.1 °F 42% 30.06 in 10.0 mi WNW 16.1 mph - N/A   Scattered Clouds
2:53 PM 75.9 °F 48.9 °F 38% 30.05 in 10.0 mi WNW 11.5 mph - N/A   Scattered Clouds
3:53 PM 75.9 °F 46.0 °F 35% 30.06 in 10.0 mi NW 11.5 mph - N/A   Scattered Clouds
4:53 PM 73.9 °F 48.9 °F 41% 30.06 in 10.0 mi NNW 9.2 mph - N/A   Scattered Clouds
5:53 PM 71.1 °F 50.0 °F 47% 30.09 in 10.0 mi NNW 10.4 mph - N/A   Mostly Cloudy
6:53 PM 68.0 °F 50.0 °F 52% 30.10 in 10.0 mi NNW 5.8 mph - N/A   Partly Cloudy
7:53 PM 63.0 °F 51.1 °F 65% 30.11 in 10.0 mi NW 4.6 mph - N/A   Scattered Clouds
8:53 PM 61.0 °F 51.1 °F 70% 30.14 in 10.0 mi NW 4.6 mph - N/A   Partly Cloudy
9:53 PM 61.0 °F 52.0 °F 72% 30.15 in 10.0 mi NW 3.5 mph - N/A   Scattered Clouds
10:53 PM 62.1 °F 53.1 °F 72% 30.15 in 10.0 mi Calm Calm - N/A   Scattered Clouds
11:53 PM 59.0 °F 53.1 °F 81% 30.14 in 10.0 mi Calm Calm - N/A   Mostly Cloudy